Theta_e
322 321 321 320 318 318 318 319 319 320 319 319 319 319 319 319 320 320 320 320 321 322 323 324 325 325 326 326 326 326 324 318 319 314 308 312 329 334 335 335 335 337 332 318 316 307 304 303 303 304 305 304 305 305 307 307 306 302 297 292 291 289 291 295 294 292 294 295 295 296 296 296 295 298 300 300 298 298 299 300 302 308 314 321 321 323 325 325
321 321 320 319 318 318 318 319 319 319 319 319 318 318 319 319 319 320 320 320 321 321 323 324 324 325 326 325 325 326 319 318 312 312 308 328 334 332 334 334 335 335 330 310 310 305 302 301 301 302 303 301 307 304 308 305 305 298 293 291 289 292 295 295 296 295 295 295 296 297 295 297 296 296 298 296 296 297 297 298 300 303 311 319 320 321 323 324
321 321 320 319 318 318 318 318 318 318 318 318 317 318 318 319 319 319 320 321 321 321 322 323 324 325 325 326 325 325 320 315 308 302 312 327 333 334 335 332 333 333 317 315 312 307 302 302 302 300 302 297 300 301 303 301 302 298 294 291 292 296 296 296 296 298 297 297 296 296 296 297 298 297 299 296 294 294 295 295 297 299 304 315 316 318 320 321
321 320 319 318 318 318 318 318 318 318 318 317 317 318 318 318 319 320 320 320 321 322 322 322 324 324 324 325 325 319 316 308 302 306 322 330 331 335 333 334 332 329 324 319 313 313 306 303 301 300 303 298 297 301 299 301 296 298 293 291 294 295 295 296 296 296 296 298 297 296 296 296 296 298 297 294 294 293 295 297 299 298 301 312 316 317 317 319
321 320 319 318 318 318 317 317 317 317 317 318 318 318 317 318 319 319 320 320 321 322 322 322 323 325 323 324 324 318 309 294 297 317 319 328 331 332 333 330 332 318 314 313 308 306 304 302 300 301 300 294 299 297 295 299 302 296 294 295 296 295 293 297 297 295 295 296 296 295 296 296 299 298 297 295 292 289 294 297 299 301 303 310 315 315 316 317
320 319 318 318 318 317 317 316 317 317 317 318 318 318 318 318 319 319 320 320 321 321 322 323 323 323 324 323 314 317 302 286 307 320 325 330 330 329 330 330 331 319 311 308 306 304 304 301 301 297 296 294 294 292 294 296 300 293 294 295 294 296 295 297 297 295 294 296 295 295 298 298 297 297 297 295 294 295 299 301 301 301 304 310 316 315 315 315
320 319 318 318 318 317 316 316 316 316 317 318 318 318 318 318 318 319 319 320 321 321 322 322 323 324 323 323 314 315 300 300 313 320 328 332 330 332 327 328 328 313 308 305 304 304 302 301 299 297 296 296 294 293 297 297 296 293 293 294 295 295 296 296 297 294 294 295 297 297 298 297 296 296 297 297 296 297 300 301 303 302 304 311 314 314 316 316
320 319 319 319 318 317 316 316 316 316 317 318 317 317 318 318 318 319 319 320 320 321 322 322 323 323 322 317 301 299 301 298 313 316 325 329 317 316 321 317 313 313 308 305 304 301 302 299 297 299 297 294 294 296 298 296 295 293 294 296 296 295 297 295 294 294 295 296 296 296 297 297 295 295 296 296 298 297 300 300 303 304 306 309 313 313 314 316
319 319 318 318 318 317 316 316 316 316 316 317 317 316 317 318 318 318 319 320 320 321 321 322 322 321 320 314 307 298 296 310 315 317 318 313 309 310 313 313 314 309 308 305 304 303 303 298 298 299 294 296 297 296 295 293 291 297 295 295 296 296 297 295 295 295 296 298 296 297 296 296 295 297 296 297 297 298 299 299 302 304 304 306 310 311 311 314
319 318 318 317 317 316 316 315 315 315 316 316 316 316 317 318 319 319 319 320 320 321 321 322 322 320 315 308 300 293 305 313 314 316 311 310 309 310 310 311 309 308 307 304 304 303 302 302 303 304 301 297 298 297 296 293 292 296 295 295 296 296 296 297 296 297 296 297 296 295 294 295 296 296 291 293 298 298 298 299 298 302 303 304 306 309 309 311
319 318 317 317 316 316 315 315 315 315 315 315 316 316 317 318 318 318 319 319 320 321 321 322 322 320 316 310 295 292 314 315 317 310 310 310 310 310 311 310 308 309 307 305 306 306 306 305 305 303 300 296 297 296 296 298 298 297 296 294 295 296 296 296 295 297 295 296 295 296 295 295 295 296 294 296 299 298 298 298 298 297 299 301 304 306 307 309
319 318 317 317 316 316 316 315 314 314 314 315 316 316 316 317 318 318 318 319 320 321 322 322 321 316 309 302 296 298 312 314 313 309 312 312 310 308 311 308 308 312 307 305 308 309 308 307 305 301 294 300 295 297 298 299 298 296 296 292 295 295 296 296 294 295 296 296 297 297 294 292 294 292 298 296 298 297 298 298 298 298 298 297 299 302 304 306
318 318 317 317 316 316 315 315 314 314 314 314 315 315 316 317 317 318 318 319 320 321 321 322 319 318 309 295 298 312 313 312 310 309 310 311 309 309 307 310 311 307 307 305 305 309 308 306 304 300 303 297 294 292 297 299 298 297 295 292 292 292 289 295 296 295 295 296 296 296 285 285 291 296 298 296 299 297 297 296 296 297 298 298 298 297 299 301
318 317 317 316 316 315 315 315 314 314 314 314 314 315 316 317 317 317 318 318 320 321 321 321 315 311 304 293 310 315 314 313 311 310 310 312 311 312 311 312 310 306 309 305 306 304 310 307 303 302 303 297 296 303 299 297 295 291 294 291 287 286 286 292 296 294 294 296 296 294 286 286 289 293 297 296 298 298 297 296 295 296 298 298 298 298 298 299
318 317 317 316 315 314 314 314 314 314 314 314 314 315 316 316 317 317 318 319 320 321 321 320 312 304 294 297 308 314 328 316 310 309 313 313 307 307 307 308 307 306 305 306 306 307 306 308 302 298 297 301 300 296 292 291 292 292 288 284 286 286 287 294 296 294 292 296 296 293 287 288 292 293 295 299 296 297 295 295 295 296 297 298 298 298 298 300
318 317 316 315 315 314 314 313 313 313 314 314 315 315 316 316 316 317 318 319 321 322 317 316 317 305 293 293 310 323 316 307 307 313 310 313 312 307 307 306 308 307 307 307 308 308 305 304 299 297 297 300 295 289 288 287 288 289 285 284 287 285 289 292 296 295 294 295 296 293 286 288 291 294 296 296 298 296 295 295 295 296 297 297 298 299 299 300
317 316 316 315 315 314 313 313 313 313 314 314 315 315 316 316 317 318 320 321 319 317 314 310 311 305 293 302 307 307 304 310 311 311 311 310 310 308 307 308 305 306 306 306 306 304 303 301 299 299 296 291 290 291 287 282 283 286 287 285 287 286 287 287 290 294 295 294 292 293 290 289 291 292 293 296 297 296 295 296 296 297 297 297 297 299 300 300
317 316 316 315 315 314 313 313 313 313 314 314 314 314 313 317 319 317 318 317 315 314 312 315 303 296 292 302 299 301 308 307 309 310 310 309 307 307 306 303 304 303 304 301 302 301 301 296 296 291 292 293 292 288 283 281 286 283 287 286 286 287 289 288 288 291 295 293 292 290 290 291 294 295 294 295 295 296 296 296 296 296 297 297 296 298 300 301
316 316 315 314 314 314 314 313 313 313 313 314 315 316 317 318 316 310 312 314 298 293 292 294 293 286 287 295 301 308 310 309 310 308 306 309 310 308 307 305 303 301 298 293 295 298 297 293 294 290 287 289 290 290 287 290 289 288 288 285 284 288 286 287 289 294 294 291 290 289 289 291 293 294 296 296 295 296 297 296 295 295 296 297 297 297 298 300
316 316 315 314 314 315 315 315 315 314 314 312 309 308 307 301 302 300 305 305 299 293 294 296 298 299 303 303 305 307 311 310 302 306 309 309 308 306 303 303 302 299 295 292 297 296 298 287 287 287 288 290 290 291 292 292 290 289 289 287 287 285 289 292 292 294 293 290 288 290 290 289 291 292 294 295 294 293 294 295 296 296 296 297 297 297 298 298
317 316 316 316 315 315 316 316 314 314 314 310 308 306 295 296 290 290 297 298 298 301 299 300 300 298 303 305 306 304 301 302 304 304 308 310 307 302 299 299 294 294 293 294 294 296 294 289 289 291 293 291 292 292 290 290 289 289 287 287 286 287 287 291 292 293 292 291 285 286 287 288 290 292 293 294 292 294 294 293 294 296 296 297 297 297 297 298
317 316 315 315 315 315 315 314 313 314 313 310 309 308 308 300 302 301 296 289 296 302 302 301 302 302 305 304 306 307 305 299 301 303 308 308 305 297 297 295 291 291 294 294 293 290 288 287 289 294 293 292 291 290 290 291 290 288 286 286 286 287 288 292 292 292 293 290 287 286 288 290 291 292 293 292 294 296 296 296 297 296 295 296 296 296 298 297
317 316 316 315 314 315 314 315 314 314 307 305 304 306 305 311 308 306 305 291 292 301 300 299 299 300 302 303 305 308 298 295 295 301 304 306 300 298 296 293 290 290 295 294 290 287 286 287 292 294 292 292 291 290 290 289 288 286 286 283 284 285 289 285 288 290 292 290 287 287 288 291 293 293 293 295 295 296 296 295 295 295 296 296 296 297 299 298
317 317 316 315 315 316 316 315 315 312 306 305 305 306 310 310 309 310 303 291 291 298 299 299 299 300 299 300 305 304 296 297 298 298 305 302 297 298 295 292 291 291 292 292 291 289 286 291 294 293 292 292 290 289 288 285 287 287 287 284 285 290 289 287 289 290 290 290 290 289 287 287 287 289 289 292 294 295 297 296 295 295 296 297 297 296 297 299
317 317 317 317 316 317 316 316 309 306 306 304 304 308 310 310 310 309 299 292 290 296 302 300 301 301 302 308 308 302 299 298 300 302 304 303 297 296 294 295 291 288 291 292 292 290 289 292 295 293 293 291 290 288 288 287 286 285 288 290 288 288 290 291 291 287 282 280 286 288 280 278 282 286 289 291 291 292 291 293 295 296 296 295 296 298 297 298
317 317 317 317 317 316 317 306 302 305 305 302 305 308 309 308 306 304 296 286 283 290 294 291 300 296 308 301 303 302 299 295 301 303 303 304 304 298 297 293 292 288 291 291 290 289 289 294 294 293 291 289 289 288 289 288 283 284 286 292 292 290 289 288 287 284 279 279 288 289 281 279 283 288 290 290 290 291 291 290 295 296 296 294 296 297 298 299
317 317 317 317 317 317 305 298 305 307 300 300 309 310 309 308 308 305 290 280 278 290 288 297 294 295 303 300 301 297 286 288 301 301 301 305 301 302 294 290 293 294 295 292 289 288 291 293 292 292 290 289 288 288 291 290 285 283 289 292 291 289 289 289 286 284 280 282 286 288 284 278 282 288 289 290 289 290 289 291 293 296 297 296 295 297 297 298
317 317 317 317 317 315 305 308 306 302 301 307 306 310 309 309 309 300 287 275 273 293 290 289 296 303 303 301 301 291 292 298 294 297 301 302 301 297 292 290 291 292 294 290 284 289 293 291 291 291 288 286 286 287 292 290 286 286 293 291 290 291 289 288 285 284 284 282 281 279 287 282 278 283 287 288 287 286 289 291 292 294 296 294 294 297 296 297
317 317 317 317 317 316 312 308 305 301 307 307 309 310 311 305 304 289 280 273 290 289 301 291 304 301 299 300 294 294 294 297 291 296 300 301 302 297 291 291 291 290 292 292 287 290 293 291 292 292 290 287 289 291 290 292 289 292 292 292 291 289 288 286 281 285 280 278 277 282 285 278 281 283 285 286 285 286 288 291 293 293 293 292 294 297 298 298
317 317 317 317 315 312 309 309 305 308 307 308 308 308 308 303 293 287 279 270 293 285 294 294 294 292 294 293 291 295 293 295 296 298 298 296 297 297 298 298 294 291 291 292 290 292 294 295 295 293 290 290 289 292 291 292 292 292 290 289 287 285 283 281 280 278 278 275 276 284 286 282 278 281 283 286 286 288 290 289 292 291 295 296 296 298 299 298
318 318 317 317 310 311 308 302 305 309 308 308 306 306 301 293 283 279 271 281 293 290 292 291 290 295 292 290 288 291 293 293 295 294 292 296 294 294 295 291 293 285 284 286 286 289 292 292 293 292 293 292 291 290 291 291 292 292 288 282 280 280 278 278 277 276 276 272 276 282 287 284 276 276 285 287 288 288 291 291 293 290 295 298 298 298 297 297
317 318 318 315 314 313 305 303 308 309 309 307 306 300 291 281 284 277 275 292 285 287 286 286 291 291 291 291 289 289 290 292 293 292 291 288 289 289 289 285 287 283 282 282 282 286 287 288 291 293 294 293 288 289 288 286 287 289 284 283 278 275 275 273 273 275 273 274 278 280 283 282 282 284 289 289 290 290 289 292 290 289 293 297 297 298 296 295
317 317 317 316 313 310 311 314 311 309 309 308 303 294 285 277 273 281 281 285 282 290 287 293 291 291 290 289 287 289 291 289 292 291 291 290 289 288 290 288 290 286 281 282 283 283 283 283 290 290 291 293 291 288 284 285 287 286 285 280 276 273 272 269 268 271 272 276 280 284 285 282 283 286 288 293 295 294 294 289 290 291 295 298 299 296 295 295
316 317 314 315 314 313 312 311 311 310 308 305 296 290 284 274 275 290 285 284 287 293 292 290 291 290 290 287 287 291 287 290 291 290 291 288 287 285 287 290 290 288 282 281 284 282 277 279 285 288 286 292 292 290 290 285 287 288 285 285 281 275 272 268 270 273 274 273 279 281 280 279 277 284 289 290 291 290 290 292 291 293 293 293 295 295 295 294
315 315 315 315 314 314 313 313 311 310 307 303 291 286 279 277 281 281 283 285 290 292 290 293 290 288 286 288 289 291 288 286 290 290 288 287 284 283 285 288 290 288 285 285 282 280 283 280 283 292 290 293 292 292 291 287 286 285 286 285 279 281 276 273 271 272 272 274 275 277 280 279 283 287 290 290 292 292 289 291 293 294 292 294 298 298 298 295
312 311 315 312 312 314 314 314 313 310 303 296 287 282 280 283 278 284 284 292 293 289 288 290 288 286 283 284 289 289 292 288 290 288 286 287 287 286 288 289 290 292 287 284 283 281 281 279 288 292 291 293 292 292 291 290 281 283 287 283 283 284 284 278 275 279 274 273 276 275 280 283 284 287 291 295 293 292 290 290 291 293 294 292 293 296 295 295
308 311 307 311 312 315 314 313 312 307 302 293 285 281 285 286 289 289 296 292 292 292 289 285 285 284 283 283 285 287 289 291 288 286 284 288 287 288 288 289 292 292 292 289 283 285 282 278 286 287 287 291 290 291 292 289 288 286 282 284 288 288 286 280 274 272 273 272 275 276 278 280 277 281 284 285 288 289 288 290 292 293 291 292 297 297 294 296
307 307 308 309 312 313 313 313 310 304 298 292 284 289 287 286 294 293 296 295 293 293 287 286 286 288 284 285 285 287 289 288 287 287 283 289 284 292 290 289 293 294 294 291 288 286 287 280 283 286 286 289 291 292 291 291 291 285 282 288 287 280 280 280 275 273 270 268 271 274 277 280 281 285 286 284 287 288 288 289 290 291 293 294 295 295 295 293
306 305 300 307 314 314 313 313 307 300 294 287 285 285 289 289 294 293 298 297 296 292 289 287 285 288 287 286 286 288 289 284 288 286 284 285 284 290 292 294 291 294 294 292 288 286 288 280 280 285 287 289 287 287 284 285 289 290 290 290 287 281 276 278 280 274 275 270 268 274 276 280 285 284 286 288 289 290 291 289 290 292 294 294 294 296 296 295
302 299 298 310 313 313 312 311 302 297 291 285 286 285 292 289 292 297 299 297 293 291 288 288 289 287 288 287 289 287 288 287 288 286 286 287 287 291 292 295 293 293 294 294 291 292 285 283 276 283 284 287 284 285 285 288 287 285 285 284 286 285 285 280 282 278 276 268 268 269 274 279 284 287 287 288 289 290 291 292 292 293 294 293 294 295 296 295
304 298 299 311 312 313 310 304 296 288 287 286 288 289 289 291 293 294 298 298 297 299 292 290 290 288 288 288 288 290 287 286 288 286 286 287 288 283 292 294 294 291 292 291 290 289 283 282 278 281 282 282 284 287 289 290 293 290 289 286 288 284 280 276 276 281 275 277 272 269 276 283 287 290 291 290 291 291 290 291 293 293 293 293 294 294 295 295
299 291 297 311 312 311 304 294 287 286 285 286 286 287 289 296 292 293 294 295 296 294 298 295 293 290 290 290 290 289 287 285 287 287 286 287 290 289 290 296 296 295 293 288 290 292 289 280 281 278 283 286 286 288 290 290 290 289 288 287 290 287 284 277 275 275 277 278 276 275 273 283 288 290 287 289 289 289 289 291 293 292 293 293 294 294 294 295
295 293 305 310 312 307 299 290 288 286 285 287 293 292 293 292 291 293 292 293 293 294 292 292 294 291 290 291 290 289 290 286 289 287 289 289 290 292 293 296 297 295 296 289 291 290 293 280 279 280 284 286 288 288 289 288 291 288 288 285 284 285 283 282 279 277 281 276 279 276 274 283 289 288 292 293 293 294 289 290 293 294 293 294 293 293 297 298
295 296 299 308 310 307 295 284 283 285 286 287 290 289 294 292 292 291 292 292 290 291 292 291 293 297 292 293 291 289 292 284 289 290 287 289 287 292 294 295 297 293 294 290 291 292 285 281 283 275 273 277 279 283 285 284 286 282 283 286 287 286 285 281 277 277 280 278 281 279 276 283 289 285 289 288 292 293 293 293 291 294 293 294 294 296 296 296
294 296 297 301 305 304 292 293 288 286 286 285 286 285 289 290 293 293 293 292 295 293 293 290 295 295 293 293 291 291 293 291 285 290 291 289 290 293 292 296 297 294 295 295 297 296 289 283 283 276 276 273 270 275 276 278 285 284 281 286 289 289 286 285 282 279 280 282 281 278 281 287 288 286 286 289 290 291 290 289 289 291 292 294 295 296 296 296
290 284 293 296 300 298 298 298 294 289 287 286 285 287 289 287 291 293 294 292 295 295 294 295 294 295 292 293 291 290 290 291 289 285 289 286 289 291 294 294 296 295 296 297 295 294 283 284 287 285 283 280 282 282 284 286 282 282 284 286 286 288 288 287 282 281 281 284 279 281 285 287 288 289 286 286 285 289 290 291 292 293 293 291 290 293 294 295
294 284 286 284 294 295 293 296 293 292 287 290 285 288 285 287 291 292 295 290 295 294 294 294 294 292 291 292 290 290 291 291 290 287 287 288 288 288 294 294 295 295 296 294 294 289 283 284 286 287 286 287 287 284 287 290 287 287 287 285 287 287 287 286 284 283 287 281 280 286 286 284 287 290 290 290 289 289 290 291 292 292 293 295 295 292 294 294
286 289 289 291 288 285 288 290 295 292 292 291 287 290 287 287 289 287 293 294 295 296 291 292 293 293 293 292 293 288 290 289 288 286 289 287 287 291 291 292 292 295 293 293 292 291 285 284 286 286 285 288 288 286 288 289 289 288 288 287 286 287 287 285 286 288 287 283 282 287 285 284 288 291 291 291 291 292 293 294 295 295 294 292 292 294 294 295
291 288 287 292 286 288 291 293 295 293 291 291 290 290 287 287 286 290 291 290 292 292 294 286 289 292 293 293 292 288 289 286 287 288 285 286 285 285 286 290 292 289 291 289 291 288 288 285 286 287 285 286 287 286 288 288 286 285 287 288 288 287 287 288 288 290 289 286 288 288 288 286 290 292 290 290 292 292 293 292 293 294 295 294 292 294 294 295
286 285 283 289 289 288 288 291 292 293 289 292 287 289 289 288 287 290 292 291 286 289 295 290 291 292 293 293 292 290 292 293 292 288 290 289 288 286 287 286 286 287 287 289 291 290 290 287 291 286 284 285 287 286 285 286 285 285 285 286 287 288 288 289 289 289 289 288 289 288 287 287 293 294 292 293 295 292 292 292 293 294 292 293 293 294 295 295
292 292 293 287 284 285 287 287 290 291 289 290 288 289 290 290 288 291 291 295 291 289 292 291 293 292 293 293 292 292 295 295 295 294 294 292 289 291 289 288 291 287 288 288 288 289 290 285 286 286 284 285 287 285 283 283 284 285 286 287 286 285 284 285 285 288 287 286 287 286 285 287 293 293 294 295 293 292 293 293 294 294 294 293 294 295 294 295
292 294 294 291 284 289 284 285 287 290 286 290 290 290 290 290 292 292 289 294 295 295 295 294 294 293 291 291 291 293 297 297 297 297 297 297 297 295 296 294 292 289 288 287 287 286 287 286 285 285 284 284 288 284 283 284 285 284 286 288 289 287 288 288 289 290 290 291 286 284 286 292 294 292 290 293 291 292 293 293 292 292 292 293 295 296 295 295
Wind_Speed
12 11 11 10 8 8 8 8 7 6 5 3 1 1 1 1 2 2 2 3 3 4 4 5 5 6 7 7 8 8 7 2 2 0 0 2 1 2 1 1 2 2 2 1 1 2 1 2 2 3 1 1 1 1 1 1 0 2 1 3 1 2 2 1 1 2 4 7 5 5 4 6 3 0 0 2 4 2 2 5 1 8 7 4 4 7 11 10
12 11 11 10 9 8 8 7 6 6 4 3 1 1 2 2 2 3 2 3 3 4 4 5 5 6 7 7 7 7 4 2 0 0 6 1 1 1 1 1 1 2 1 1 2 0 1 2 4 2 1 0 1 1 0 1 1 1 1 3 1 1 1 2 1 4 5 4 7 6 4 7 6 6 2 2 1 2 2 1 4 6 4 6 7 7 10 10
13 12 11 10 9 9 8 7 6 5 3 2 1 1 1 2 2 2 3 3 3 4 4 5 5 6 6 6 7 6 1 1 1 3 2 1 2 2 2 2 1 1 2 1 1 1 2 3 3 2 1 1 1 1 2 0 1 1 2 1 1 2 1 4 3 1 1 9 6 5 4 2 3 4 1 2 5 3 5 5 1 4 4 6 6 5 8 9
14 13 11 10 9 9 8 7 6 5 4 1 1 1 1 2 2 3 4 4 5 4 4 4 5 6 6 6 7 3 1 2 1 1 0 1 1 2 3 2 1 1 1 1 1 0 3 2 1 3 0 1 1 2 2 1 2 1 3 2 2 2 1 4 3 3 2 9 7 5 2 5 3 4 4 3 4 4 5 6 10 10 10 11 10 9 7 9
14 13 11 10 9 9 8 7 5 5 2 2 1 0 1 2 2 4 4 5 5 5 5 5 5 5 6 6 7 0 1 2 2 0 1 1 1 4 2 1 1 1 1 1 4 3 3 2 1 1 1 1 1 1 1 1 1 3 1 2 1 1 3 2 1 4 2 4 7 5 7 4 1 2 2 5 4 5 7 6 8 10 12 14 12 10 6 9
14 13 12 11 11 9 8 6 5 4 3 3 3 1 0 1 3 4 5 6 6 6 5 5 5 6 6 5 2 0 1 4 0 0 2 3 3 4 2 0 2 1 2 1 0 2 0 2 1 0 0 2 3 4 1 2 0 2 1 1 3 0 4 1 1 6 3 4 5 3 1 3 3 1 3 5 6 2 3 5 7 8 13 16 12 12 10 9
14 14 12 12 10 10 8 6 5 4 3 3 3 2 0 1 2 4 4 6 6 6 6 5 6 6 7 3 1 0 2 2 0 2 3 3 4 4 2 1 2 1 1 1 1 0 1 1 1 1 1 0 1 2 2 1 2 5 2 1 3 4 3 1 1 4 5 8 2 1 1 1 1 2 0 2 4 6 5 3 5 5 8 12 13 13 16 16
14 15 12 10 10 9 8 7 5 5 3 3 3 1 2 2 3 4 5 6 6 6 6 6 6 6 6 1 1 0 1 3 1 4 4 4 1 2 1 0 1 1 1 2 0 1 0 1 3 1 0 2 2 5 0 5 2 2 1 0 1 3 0 1 1 2 4 3 1 5 3 1 4 2 0 4 8 5 4 3 7 9 12 10 11 12 10 10
14 13 12 10 9 7 7 7 6 5 4 4 3 1 3 4 3 3 5 6 6 6 5 5 5 6 1 0 2 3 3 1 3 2 4 1 3 3 3 1 2 2 0 1 2 2 1 2 1 2 1 1 1 5 1 4 1 0 3 3 1 1 1 1 2 2 2 1 3 2 0 1 3 1 3 8 6 7 5 5 8 9 10 11 12 13 11 11
14 14 12 10 9 8 7 6 6 5 5 3 3 2 3 4 4 4 5 6 6 5 5 5 6 5 2 1 2 2 2 2 4 2 3 2 2 2 3 1 1 0 0 2 1 2 1 0 1 1 2 2 2 3 0 4 1 1 5 4 6 2 2 0 2 0 1 1 1 1 0 1 2 3 6 3 9 4 6 6 5 10 11 10 9 10 11 12
15 14 13 12 10 9 8 8 4 5 4 3 3 3 3 4 4 5 5 6 6 5 4 5 4 4 1 0 5 5 1 1 1 2 2 2 4 5 1 1 0 1 0 1 3 1 2 2 1 0 2 1 3 2 2 1 2 6 6 4 4 1 0 1 3 1 1 1 2 3 1 0 2 1 8 6 2 6 8 6 6 6 8 9 9 10 9 10
15 14 14 13 12 11 10 8 7 6 4 4 4 3 4 4 4 5 5 6 6 4 5 4 4 0 0 2 4 3 2 2 2 3 2 1 3 6 5 5 1 0 1 0 0 0 1 0 1 1 2 0 1 1 1 1 3 6 7 3 1 2 1 1 3 2 1 0 0 0 2 2 1 5 12 6 1 5 7 7 7 6 7 8 8 9 8 11
14 14 14 13 13 12 11 9 8 7 6 6 5 5 5 5 5 5 6 6 5 6 5 4 4 0 1 1 3 3 2 2 3 3 2 0 1 1 2 2 2 1 3 4 3 2 1 1 2 5 1 3 2 1 2 2 1 3 2 5 2 1 2 5 0 2 2 1 1 1 2 7 7 13 10 3 2 3 5 6 6 6 6 6 6 7 8 7
14 14 13 13 12 12 10 9 7 7 7 6 6 6 6 5 6 7 6 7 7 6 3 3 2 1 0 2 1 3 2 3 3 2 1 1 2 1 2 2 1 2 2 5 2 2 0 0 3 4 1 4 2 1 3 2 3 3 1 4 3 3 2 3 3 2 3 1 1 2 2 7 6 8 6 6 6 7 6 6 5 5 6 5 6 6 8 9
14 12 13 12 11 10 10 9 8 8 8 7 7 7 6 6 7 8 8 7 6 2 3 2 1 2 1 1 1 1 3 0 1 1 0 0 3 2 1 2 3 3 2 5 2 1 1 2 3 2 1 0 4 3 2 1 1 1 4 2 1 3 3 1 1 6 4 1 1 3 1 9 8 9 4 0 4 5 6 5 5 5 5 6 6 7 7 9
14 13 12 12 11 10 9 9 9 8 8 7 7 6 5 7 8 9 9 7 8 6 1 0 1 1 3 2 0 3 1 1 2 1 1 1 1 2 4 4 0 1 1 1 1 1 2 5 4 2 2 2 3 6 4 4 1 2 3 1 1 2 2 1 1 2 6 2 1 3 5 5 4 3 2 3 2 4 5 6 6 7 7 7 6 7 7 7
14 14 12 12 11 11 9 10 8 8 8 7 6 6 7 9 9 9 9 7 4 1 2 2 1 1 2 1 2 0 2 2 2 1 1 0 1 4 4 1 1 1 2 2 4 3 3 3 2 1 2 3 3 6 7 2 1 2 1 2 3 4 2 1 3 1 1 4 2 1 2 7 5 8 5 3 2 2 4 7 7 7 7 8 7 8 9 8
14 14 13 11 11 10 10 10 9 8 7 5 6 4 5 7 8 8 4 2 1 1 2 2 1 1 4 2 2 5 2 3 1 2 1 2 1 0 2 2 0 2 2 2 3 2 1 2 2 4 1 1 2 2 5 4 6 3 2 1 4 0 7 5 4 2 5 1 2 0 4 10 13 11 6 7 4 5 8 9 9 9 8 8 6 8 9 9
14 14 12 11 11 11 11 10 10 8 7 7 6 7 8 10 4 2 1 1 2 3 0 2 5 5 3 9 3 3 3 3 2 2 2 1 1 0 0 2 4 4 1 2 1 2 1 3 5 5 4 2 4 6 7 2 6 5 7 5 3 2 2 1 2 1 3 1 4 4 6 8 11 11 12 7 6 8 10 8 7 8 8 7 8 8 8 9
14 14 12 12 12 11 11 10 9 8 7 4 2 1 1 2 2 2 0 0 2 2 1 5 4 2 2 4 5 1 2 2 5 2 1 1 0 1 1 2 2 4 3 3 1 0 1 4 4 5 7 7 4 6 6 3 6 4 4 3 2 3 1 1 1 0 0 1 5 8 7 7 9 10 11 11 6 5 7 9 10 9 9 9 8 9 10 9
13 13 13 12 12 10 10 9 7 7 7 2 1 1 4 6 8 1 1 3 4 2 3 2 3 2 0 3 2 6 7 1 1 0 1 1 0 4 2 2 2 1 0 4 5 1 5 4 4 6 7 8 7 4 4 5 5 4 4 4 2 1 2 1 1 1 2 1 3 2 4 9 11 10 11 9 7 11 10 10 10 12 11 10 10 11 11 10
13 12 12 12 10 9 8 8 8 5 5 1 2 3 1 1 1 1 5 1 4 1 4 3 2 3 1 2 3 1 2 3 2 1 2 0 1 4 2 3 3 7 0 4 4 3 2 5 6 7 4 2 4 6 4 4 4 3 3 2 1 1 1 1 1 1 1 2 8 2 5 12 11 10 10 9 12 12 9 10 10 10 10 10 10 9 9 6
12 13 13 10 12 11 10 8 6 5 1 1 3 2 1 0 0 1 1 4 2 1 2 1 2 3 1 4 2 1 2 3 5 2 3 1 1 1 4 4 4 4 2 4 7 4 2 5 10 5 3 4 2 5 7 5 5 5 3 2 3 2 1 2 2 1 1 2 3 1 6 14 12 7 12 14 11 11 8 4 7 8 11 12 9 10 10 11
13 13 12 11 12 11 10 8 5 1 2 3 3 3 0 0 1 2 1 2 3 3 1 2 2 3 3 4 3 3 4 2 5 8 2 4 6 3 4 4 6 3 7 5 8 8 6 2 1 4 3 4 3 2 5 4 1 2 3 3 0 0 1 3 1 1 1 1 2 5 5 9 5 4 5 7 6 9 13 7 8 10 9 9 6 6 8 10
13 12 12 12 11 10 9 8 3 4 2 2 3 4 2 1 2 1 2 1 2 0 1 2 2 2 3 2 1 4 2 1 1 2 3 6 4 3 3 2 3 4 6 5 6 4 5 3 1 5 2 4 5 2 2 6 1 1 1 3 2 5 5 2 2 3 7 2 2 2 7 5 5 4 5 8 4 2 3 3 10 12 9 6 9 11 7 5
14 13 12 12 11 11 10 3 3 3 3 3 3 1 4 2 2 1 1 2 2 2 2 7 1 4 3 1 1 2 2 1 1 3 5 3 1 2 1 2 3 6 5 5 6 3 5 1 2 5 4 4 4 2 2 4 3 1 2 1 2 6 6 4 2 3 2 0 1 2 1 10 5 10 8 8 8 10 8 5 9 9 8 6 9 7 7 8
15 14 14 13 13 13 5 2 2 6 3 3 1 0 1 2 1 1 3 4 4 4 7 1 2 2 2 3 5 3 5 4 0 4 3 2 2 1 4 3 2 1 2 2 3 3 2 2 5 5 4 3 4 2 2 6 6 1 1 1 3 4 4 2 5 3 3 2 4 1 4 4 10 12 5 11 8 9 8 11 13 13 12 9 5 6 8 7
15 14 14 15 15 13 2 1 5 5 2 0 3 1 2 1 1 1 2 3 3 4 3 2 2 2 1 2 5 4 2 6 3 2 0 2 0 2 2 5 7 6 1 5 8 2 2 3 3 3 2 4 5 3 0 4 4 2 0 5 4 7 4 4 5 2 0 2 7 4 0 2 6 10 5 1 5 6 11 13 12 14 14 6 4 8 7 5
15 14 14 13 15 17 2 2 1 2 1 1 0 0 2 1 1 5 4 3 1 2 4 6 4 2 2 2 2 1 2 3 2 1 3 1 2 2 1 3 4 4 1 6 7 1 3 3 4 7 5 4 2 0 0 5 4 1 1 5 5 6 5 3 2 2 2 1 7 3 3 3 11 5 6 1 1 6 9 11 13 12 8 7 5 3 1 2
15 15 13 13 8 4 3 0 1 1 2 0 1 1 1 1 2 3 3 6 3 3 1 1 2 7 4 9 1 1 4 1 2 0 1 3 2 3 0 1 2 2 1 8 7 3 0 1 4 4 4 4 5 1 2 2 3 5 5 7 5 7 3 2 5 2 3 4 6 8 8 4 8 3 5 4 5 7 6 5 8 5 3 2 2 5 6 5
16 15 14 13 6 3 2 1 4 4 1 1 2 3 2 3 4 4 5 6 3 1 2 1 2 5 12 14 8 1 5 1 0 4 2 1 1 3 0 2 5 6 5 5 3 4 3 2 1 1 2 4 3 5 6 2 4 4 2 3 3 2 5 3 3 5 1 7 5 4 7 5 6 5 5 6 5 4 7 8 10 5 2 3 5 5 4 5
16 16 17 11 4 5 6 3 1 2 3 3 2 4 4 4 3 6 4 2 2 5 5 5 1 6 12 6 6 6 6 2 1 4 8 5 5 5 5 7 4 5 4 5 4 2 1 1 1 2 2 7 4 8 5 5 3 5 6 6 4 3 4 2 3 1 4 6 1 2 2 2 15 4 4 8 9 3 5 6 4 3 3 4 4 5 5 3
12 16 19 10 6 4 2 0 1 3 4 3 3 3 4 5 8 7 3 5 2 6 5 5 9 9 7 7 6 4 2 8 3 2 4 1 7 5 2 5 6 7 7 3 4 3 4 2 2 1 4 3 6 9 2 1 2 5 7 6 5 1 1 4 4 2 4 5 5 0 1 6 4 6 8 11 12 9 9 5 3 4 6 7 7 6 5 4
5 13 12 8 8 4 2 2 2 4 4 3 4 4 2 5 6 8 5 4 2 1 7 4 7 6 11 10 7 7 3 1 8 5 5 5 5 6 6 5 3 0 6 2 8 7 2 3 6 4 2 3 4 7 12 9 8 8 3 9 9 8 5 4 3 4 7 5 2 3 2 7 2 4 1 5 8 8 3 5 6 5 3 3 5 3 2 5
5 8 5 4 5 3 4 2 3 2 2 6 4 5 9 10 5 9 8 4 0 3 3 7 12 10 5 1 3 5 5 2 5 6 5 8 7 5 8 7 4 3 3 8 3 2 8 4 5 8 1 7 9 3 5 6 2 2 3 6 4 8 6 2 5 3 1 1 2 2 6 5 5 3 7 4 7 9 6 4 4 6 4 2 1 3 6 5
3 2 5 3 4 4 5 4 3 4 2 6 6 6 12 11 6 4 4 4 1 5 6 8 4 6 6 3 2 9 1 5 7 4 3 6 3 9 6 5 9 12 7 8 4 2 3 4 2 1 4 9 6 3 4 5 5 4 5 7 7 5 5 1 1 0 2 3 10 2 8 8 7 9 11 14 7 7 6 7 6 7 9 3 4 8 6 4
4 2 3 3 4 6 7 6 4 4 4 5 7 11 11 3 2 4 4 8 5 13 8 11 5 6 7 5 5 7 2 5 4 5 5 2 3 5 5 5 5 8 9 9 2 3 9 4 2 3 3 1 0 1 0 3 3 7 4 7 1 2 4 4 5 2 1 5 8 3 10 8 3 14 3 1 6 7 7 8 8 9 8 4 10 8 4 7
1 1 1 2 4 8 7 7 6 4 4 5 11 11 1 3 1 1 1 6 4 8 5 7 2 8 5 6 6 9 5 9 7 4 4 7 4 6 7 3 7 12 12 3 6 3 6 1 1 0 1 6 3 1 2 1 1 5 4 3 6 3 2 2 4 3 1 2 6 5 4 8 9 13 1 2 1 2 6 9 8 11 11 12 9 8 8 4
1 1 2 3 7 10 8 8 7 7 6 6 10 11 2 3 1 0 2 4 6 5 9 5 5 4 6 8 5 5 8 8 9 8 7 3 5 6 15 9 5 11 11 9 6 2 2 5 2 2 2 1 1 4 9 4 3 0 2 1 1 4 3 5 7 4 6 5 1 9 3 12 7 5 8 9 7 11 10 9 9 12 13 11 8 9 9 6
3 2 3 2 10 10 9 7 5 4 6 14 13 5 3 1 1 4 7 0 3 4 3 5 2 6 5 7 10 10 6 5 12 7 5 4 7 2 9 10 7 10 14 13 6 4 3 3 6 1 3 2 3 5 9 11 10 3 2 3 1 0 2 4 0 5 5 3 5 3 9 10 6 8 7 8 9 10 11 12 9 9 12 10 8 9 8 7
1 1 1 3 10 11 10 7 3 4 5 3 7 0 4 1 4 3 7 7 1 1 1 4 6 8 6 5 3 4 5 6 8 7 5 4 9 3 7 10 6 6 5 5 6 3 2 2 7 2 1 4 9 4 7 13 15 13 13 11 12 8 4 4 8 1 2 3 4 2 13 14 5 4 8 10 10 8 7 8 8 11 10 7 9 8 8 6
1 3 2 4 11 12 11 7 2 1 1 5 6 3 1 3 2 3 3 3 3 1 2 1 2 4 7 6 8 8 5 4 5 6 4 8 9 6 3 11 9 12 12 9 13 7 7 3 9 6 9 10 4 2 2 5 3 2 3 8 6 5 5 5 7 5 1 4 3 4 0 22 2 8 5 5 5 5 7 7 8 6 8 9 9 8 6 6
0 2 2 10 10 11 7 3 3 3 1 3 2 1 2 2 0 1 2 3 1 2 1 0 3 4 4 4 3 5 11 5 10 9 6 9 6 13 4 13 10 13 12 5 5 0 6 3 3 2 1 2 2 3 3 2 1 4 5 2 3 5 5 6 6 6 7 2 4 3 3 17 1 2 1 1 1 2 1 5 7 9 6 6 7 6 6 5
0 1 1 3 5 4 9 6 6 7 3 2 2 1 3 2 1 2 0 2 1 3 0 1 2 0 2 1 5 8 9 4 6 9 5 4 4 7 7 10 14 7 10 8 11 8 5 4 8 2 1 1 3 4 2 3 2 1 2 2 4 3 4 4 3 1 2 8 9 8 12 18 0 1 3 2 1 2 3 3 3 4 5 5 4 5 5 3
1 1 1 0 2 3 9 3 6 6 6 6 4 5 5 3 5 8 0 1 2 1 2 1 0 4 1 1 3 4 11 11 2 8 4 4 5 1 7 12 14 10 8 8 10 10 6 5 8 6 10 9 5 7 8 4 7 4 4 7 9 12 10 5 7 4 8 9 10 8 12 18 6 3 4 3 2 3 5 5 4 2 5 7 5 3 1 1
2 3 2 0 2 3 3 2 7 7 8 6 4 3 6 5 1 4 7 7 3 2 1 3 3 1 1 1 2 4 7 6 5 4 9 4 3 1 2 7 12 8 7 10 7 9 3 4 9 11 12 13 12 5 4 6 3 4 7 10 8 9 10 10 4 6 14 14 5 7 15 20 18 12 6 3 2 2 5 6 6 6 7 6 5 5 3 3
2 3 4 5 2 5 3 3 4 6 7 9 5 5 7 9 2 0 7 4 5 6 1 1 2 1 2 2 3 3 4 9 2 4 7 8 1 2 1 6 7 3 8 6 8 5 3 4 9 12 14 14 11 7 10 15 13 14 14 10 12 11 12 14 13 17 16 5 14 14 14 11 22 21 11 13 8 7 7 6 7 6 7 9 7 5 5 4
5 3 1 3 4 6 9 7 8 7 3 11 4 5 9 10 8 4 2 5 2 2 5 3 3 5 5 2 1 4 5 3 5 6 2 1 3 0 2 3 4 1 4 3 7 6 5 6 7 8 11 13 10 6 11 11 14 14 16 15 15 15 13 16 19 22 12 11 17 17 8 13 21 22 12 11 8 10 11 11 11 7 5 6 6 6 7 7
2 3 2 3 4 2 9 4 10 9 10 13 4 8 7 10 13 10 5 3 2 2 9 7 8 10 10 4 1 3 4 5 5 1 2 2 4 2 2 1 1 4 3 3 5 2 3 5 6 9 11 12 12 7 8 13 6 5 10 16 17 18 20 22 22 20 17 12 13 18 16 15 16 21 5 8 7 8 7 3 2 3 7 7 6 6 7 7
5 2 4 3 2 0 2 5 7 11 10 12 7 8 9 12 14 9 4 6 5 6 7 12 10 8 11 10 4 5 6 4 1 4 2 4 2 1 4 3 2 1 1 5 5 2 7 7 10 4 5 9 13 6 5 7 5 6 7 10 15 18 21 22 19 16 12 12 14 15 15 17 19 13 4 10 11 2 2 5 5 6 6 6 7 8 8 8
1 2 1 1 2 3 2 2 7 10 8 9 10 7 8 11 13 11 8 7 9 6 8 15 15 9 7 10 9 9 8 5 2 3 3 4 7 2 2 3 1 4 2 2 1 1 5 4 2 3 7 9 8 6 5 4 4 5 9 12 14 14 10 7 10 9 10 14 14 12 14 19 19 1 7 13 7 6 9 9 8 7 6 7 10 9 6 7
1 4 1 3 2 2 5 2 2 7 10 10 12 13 9 15 10 10 4 6 11 11 11 15 10 7 4 6 12 16 15 5 1 4 5 4 1 3 5 2 1 3 3 3 1 3 3 4 4 4 8 11 11 5 7 8 3 7 15 22 16 5 10 9 10 12 16 15 12 13 19 18 17 4 4 9 6 7 9 6 5 6 7 8 10 9 6 7
Wind_Direction
170 177 165 163 188 191 186 180 163 168 163 178 203 255 319 7 360 357 350 336 325 335 336 341 354 359 2 2 358 358 358 85 35 28 87 248 132 162 207 299 9 321 1 64 40 45 314 322 295 275 10 62 269 106 255 41 111 60 92 120 335 203 52 273 210 190 168 131 188 168 178 116 133 300 227 69 40 94 74 103 49 36 45 69 91 104 126 139
166 171 164 167 178 198 187 175 164 157 150 184 192 312 329 351 353 346 347 337 322 327 342 348 355 359 359 355 355 353 27 67 360 291 226 161 230 184 176 243 293 350 277 73 155 124 39 308 262 163 103 233 317 121 27 268 75 109 159 87 205 203 293 334 248 138 110 180 166 183 167 139 198 140 217 115 231 132 103 104 80 71 51 63 83 117 133 141
167 167 167 170 181 196 184 175 168 148 163 173 269 284 338 9 346 347 354 344 339 336 345 349 354 354 353 350 344 346 5 56 24 262 221 227 151 209 212 200 204 78 71 147 190 154 191 242 260 154 143 109 328 177 45 260 77 221 110 81 242 188 178 28 347 50 175 145 147 177 198 157 200 141 147 177 185 145 169 154 50 134 163 163 157 146 148 151
169 168 167 172 175 194 187 183 167 169 163 157 229 306 14 5 346 7 359 351 349 348 348 349 346 348 346 343 340 332 68 71 242 231 311 47 226 222 222 216 130 71 96 132 193 293 262 293 235 146 86 116 250 81 118 258 92 260 75 166 186 202 110 313 357 328 59 141 161 150 112 110 182 166 147 178 108 238 236 201 168 199 179 179 175 164 163 163
169 163 165 165 173 190 191 184 181 169 142 212 151 242 27 334 7 8 355 351 351 353 351 342 344 338 340 341 335 54 86 68 262 36 237 280 273 253 235 121 97 89 141 282 343 267 260 270 34 69 107 239 58 66 252 243 160 82 165 171 192 58 65 264 300 3 9 135 114 130 117 176 109 87 182 141 167 215 211 220 209 193 170 161 173 178 166 174
168 162 162 164 177 185 187 192 190 166 187 193 154 114 8 349 12 0 356 352 351 352 348 345 336 340 332 333 16 62 110 167 227 15 215 231 236 248 228 316 91 84 60 19 158 304 22 330 83 37 317 95 186 135 258 158 170 96 331 41 20 159 132 273 9 335 44 87 96 91 191 127 147 183 227 151 186 231 211 163 183 201 170 176 156 151 167 177
162 159 164 172 174 180 185 195 192 187 182 177 155 111 344 30 6 9 357 350 349 349 350 339 343 335 326 318 229 106 157 253 60 235 211 239 234 236 225 23 72 54 93 23 339 171 140 292 105 226 116 106 262 123 197 127 49 105 175 103 23 73 97 200 123 10 55 88 97 187 70 134 167 162 312 222 239 203 196 206 141 137 123 130 150 173 174 183
158 159 167 168 173 173 181 191 197 200 176 199 155 56 331 335 9 5 1 346 344 347 343 341 342 342 336 141 89 56 76 257 237 235 210 240 288 238 113 74 101 62 62 200 193 18 152 174 206 193 68 158 213 130 203 79 35 104 69 105 178 62 156 62 88 52 57 70 89 80 109 231 167 189 59 240 234 225 203 160 112 119 132 149 156 177 184 186
159 158 162 162 166 165 175 188 203 200 192 216 186 239 305 328 343 3 348 347 340 339 342 339 341 340 294 126 124 94 246 242 210 292 176 360 306 24 24 48 114 112 232 248 191 191 120 258 211 179 255 189 103 91 356 113 327 122 172 127 73 106 97 117 60 35 72 74 56 79 8 295 243 205 240 227 240 210 172 125 129 130 140 160 175 182 182 188
160 162 159 157 153 160 165 188 202 201 199 220 226 270 292 308 320 345 340 339 336 335 333 340 347 328 28 109 67 167 259 244 298 258 151 196 352 67 42 187 107 210 20 282 35 77 123 220 156 239 144 90 92 83 140 83 201 140 103 115 127 170 108 336 116 19 58 91 54 103 339 296 301 54 279 282 229 181 144 149 153 144 162 178 181 188 193 187
165 163 158 156 156 162 173 185 194 209 209 224 246 266 280 296 321 332 332 331 334 320 338 342 352 9 113 120 119 211 165 61 243 324 222 224 63 87 109 326 58 71 126 325 115 169 170 204 216 229 49 227 83 338 78 193 123 98 120 82 81 89 62 38 83 76 63 350 60 95 281 317 316 63 236 237 274 171 161 167 170 161 174 185 190 189 199 199
164 164 159 156 156 163 173 167 188 210 226 241 251 255 284 286 308 319 323 328 319 335 329 346 350 35 58 85 148 211 169 237 276 298 293 189 131 167 201 202 152 180 121 208 256 235 147 233 75 57 190 182 69 91 48 145 93 151 109 84 264 33 74 248 153 234 76 286 41 145 22 308 155 227 241 239 265 143 163 176 182 186 193 194 195 196 199 206
164 164 165 162 159 165 167 178 189 202 214 228 243 255 272 278 293 311 318 320 327 322 330 345 350 133 93 117 238 252 267 316 304 344 334 106 117 193 196 201 217 181 194 156 196 225 232 129 99 82 209 96 163 124 202 86 140 106 43 127 51 16 336 256 305 78 82 273 43 44 311 265 233 236 260 277 177 116 148 184 196 203 207 209 203 205 213 218
165 169 170 166 164 168 176 192 192 210 217 220 236 250 259 280 298 298 306 303 308 310 349 343 42 62 110 248 298 258 302 18 336 9 273 306 91 27 8 12 71 77 73 111 180 197 349 108 108 130 95 97 137 276 79 1 35 138 195 65 139 75 268 290 171 186 125 318 35 77 197 286 266 269 283 213 166 153 190 210 212 213 218 218 218 216 217 221
167 167 170 167 167 165 184 193 199 210 217 220 233 246 259 285 298 297 294 297 292 315 352 4 79 99 83 262 297 283 285 99 348 232 231 54 124 66 28 26 70 70 114 135 153 217 186 71 75 44 53 292 86 84 51 55 357 104 62 295 323 129 276 300 17 156 164 301 54 87 288 250 276 278 291 282 154 159 195 224 241 237 232 226 223 223 224 224
164 165 166 169 165 170 173 185 201 211 209 218 229 247 278 292 293 291 292 283 282 282 264 71 95 129 106 299 212 311 17 124 207 227 249 114 114 163 190 144 102 7 50 360 57 15 51 89 80 174 97 26 65 101 80 44 334 8 114 261 261 95 215 344 297 201 171 118 360 165 225 323 310 300 310 318 154 160 192 231 237 239 241 235 225 222 223 229
164 166 168 172 173 174 173 186 198 205 216 212 231 262 279 278 282 286 284 281 296 116 162 118 124 163 146 279 326 64 216 223 309 318 330 102 140 174 105 65 55 73 19 14 21 55 2 65 291 42 52 136 163 100 79 20 338 298 23 193 211 155 169 249 296 301 117 110 226 293 220 244 250 279 295 300 221 193 222 239 240 235 232 228 219 221 221 218
169 168 172 171 172 174 180 187 189 202 216 220 237 267 275 282 289 311 255 233 263 180 226 206 188 94 266 55 164 221 157 113 170 204 146 258 122 62 106 86 217 85 52 41 353 75 338 56 41 177 7 13 80 68 106 200 188 202 197 207 294 248 170 194 158 251 132 38 165 305 240 267 270 275 264 248 233 198 224 228 233 232 237 240 222 219 222 218
169 169 173 173 175 177 182 185 186 198 206 227 245 259 269 280 272 194 302 96 91 60 105 196 126 148 213 205 220 75 82 183 146 83 202 64 290 144 97 94 94 98 66 70 286 94 11 54 25 51 159 219 205 152 162 193 156 180 170 176 162 152 246 244 247 315 131 162 243 220 228 248 262 273 283 273 224 215 230 241 254 253 244 238 228 223 221 220
173 169 172 175 174 183 186 183 192 196 204 219 224 271 68 81 58 79 346 304 250 173 220 171 171 165 57 52 128 250 230 26 107 281 222 300 106 82 75 95 39 55 97 140 155 76 107 99 163 180 205 209 218 175 178 193 144 120 93 109 154 137 353 316 17 298 98 82 236 233 250 257 269 266 267 271 270 224 242 248 245 247 244 237 237 234 230 223
174 170 177 178 177 175 181 180 183 200 210 183 269 197 156 172 110 243 214 262 226 270 63 43 169 152 206 144 141 147 118 357 66 219 221 304 102 100 189 78 55 105 243 180 137 287 66 85 241 219 198 194 212 161 118 59 62 120 109 69 345 122 167 269 218 309 335 127 292 270 276 266 255 263 263 270 285 266 230 229 238 240 241 239 234 238 239 237
170 171 173 176 165 156 167 174 183 179 109 114 238 216 301 164 152 215 126 171 282 162 127 160 95 55 27 95 197 137 73 94 62 318 297 88 230 116 231 105 147 165 180 105 51 36 55 167 239 222 213 126 102 106 104 116 94 49 116 137 71 335 177 309 336 338 295 85 258 342 319 276 268 258 260 251 250 251 234 214 227 224 240 243 235 238 248 254
168 169 171 165 169 171 173 175 179 180 89 135 212 249 224 243 221 229 115 112 159 288 135 105 83 126 13 326 279 50 97 139 178 245 228 87 92 197 151 110 152 157 115 128 137 110 90 292 241 239 160 93 48 82 86 66 66 102 64 71 196 237 126 290 288 328 257 162 269 352 321 285 278 257 252 252 243 253 262 233 239 219 235 242 235 224 230 235
170 167 167 167 166 180 174 153 167 135 214 234 289 234 246 228 81 47 92 148 183 245 163 210 149 151 182 151 207 131 138 196 114 199 263 116 156 190 119 154 161 118 179 151 139 147 185 230 275 150 123 122 130 73 89 76 105 339 127 131 204 183 57 154 242 299 315 338 42 330 292 291 303 333 319 291 263 249 266 270 268 257 237 246 256 259 230 228
168 165 168 165 169 160 166 135 140 222 167 205 258 238 215 160 91 94 112 6 24 353 346 334 107 229 183 34 91 141 228 59 3 171 180 151 171 90 211 191 109 189 177 184 124 133 273 270 68 124 85 77 97 69 133 120 71 339 255 175 190 130 117 45 8 43 16 351 321 57 345 302 289 295 259 282 352 309 287 255 257 257 257 245 243 238 245 249
163 167 165 163 160 154 140 121 237 172 156 193 227 230 159 115 93 108 96 89 253 242 42 206 103 222 115 193 79 194 82 92 224 244 133 217 227 152 128 189 126 197 191 154 167 176 196 9 121 161 123 87 81 124 223 113 162 88 255 156 153 130 116 96 28 62 336 223 292 74 112 279 304 281 273 286 277 267 286 306 271 271 263 233 235 244 241 235
165 167 163 161 159 148 122 219 188 126 122 270 311 62 175 90 52 68 74 11 327 193 155 276 101 237 49 194 141 115 138 231 353 27 73 351 169 327 147 222 76 29 155 143 53 233 72 53 73 61 80 85 89 93 246 136 110 215 236 175 105 88 92 117 97 112 226 240 307 7 137 222 301 290 218 235 246 266 282 273 268 266 265 248 235 242 242 233
167 167 165 163 158 172 161 346 124 156 180 253 271 199 111 128 63 93 82 102 264 141 143 240 225 337 41 187 128 150 216 160 102 235 112 290 133 348 97 201 162 178 174 85 178 266 137 149 128 97 78 86 167 203 296 117 121 213 240 142 110 125 144 113 94 134 219 34 287 329 335 302 237 270 294 251 261 269 253 255 259 253 255 262 232 247 250 233
166 168 167 164 170 192 104 63 12 149 230 253 222 42 84 64 101 108 124 139 234 85 273 108 267 113 80 95 72 99 103 0 139 239 312 23 39 151 95 221 164 163 80 133 180 233 359 160 203 144 126 176 227 294 272 145 80 256 149 73 70 68 65 98 100 69 336 47 267 237 186 228 277 230 273 25 271 271 252 247 248 251 261 269 259 251 208 172
166 169 165 169 169 216 300 355 213 222 205 86 335 65 54 84 90 146 119 234 131 221 64 202 139 186 142 145 102 203 97 355 63 97 44 150 314 25 289 177 114 111 134 30 77 185 267 356 160 94 176 183 143 65 81 69 122 122 67 62 21 33 30 19 68 87 44 275 255 206 206 149 287 263 208 149 217 200 249 284 266 267 245 250 209 180 174 161
171 164 164 158 180 171 118 330 248 208 158 64 65 61 79 42 132 108 185 224 59 95 57 143 171 120 148 159 161 249 82 100 97 132 112 18 7 31 83 37 40 49 51 34 44 333 8 356 82 309 50 113 93 68 5 51 84 105 97 112 46 340 13 27 344 34 158 267 263 251 207 159 227 291 280 236 269 237 187 223 245 273 295 185 185 214 209 180
169 167 159 172 152 138 166 214 260 151 143 90 71 89 88 92 336 175 205 71 162 198 160 179 252 156 173 151 118 153 142 57 179 150 145 167 156 154 217 160 156 96 189 180 200 349 3 24 288 25 260 122 93 81 348 9 2 79 85 66 116 258 31 312 19 290 212 222 254 333 198 10 248 216 275 291 290 281 235 231 232 219 218 241 242 232 220 204
179 166 168 170 133 182 244 320 82 139 112 82 76 69 92 105 197 223 247 176 256 147 226 137 163 161 153 126 168 149 125 148 202 201 117 178 149 231 255 171 191 134 187 225 107 90 272 292 25 305 2 250 135 127 180 59 266 117 145 144 116 165 160 243 269 228 300 296 264 292 67 250 282 301 232 251 262 229 226 214 210 169 181 208 222 223 215 199
148 174 168 180 179 165 123 134 115 115 114 80 88 84 71 176 231 222 188 196 175 63 128 129 128 126 155 170 194 156 114 317 152 191 141 153 143 189 253 274 178 123 81 143 163 178 136 310 269 135 261 183 185 172 175 175 169 207 123 157 180 154 164 207 183 203 221 216 285 280 99 233 96 240 248 237 255 268 255 209 232 225 213 219 225 232 212 206
104 161 170 168 191 170 124 124 115 85 89 122 106 163 168 211 223 189 198 204 218 78 84 135 132 145 199 38 160 188 139 174 191 132 169 143 205 184 185 210 227 127 136 129 243 87 209 204 256 198 258 157 182 221 128 93 61 243 167 88 97 221 130 165 203 159 235 323 341 221 215 192 184 264 290 255 298 315 315 328 330 314 324 30 268 237 234 209
65 67 162 175 191 163 142 123 73 52 111 138 143 188 206 192 202 162 211 152 133 113 120 101 100 138 172 154 202 188 263 115 215 131 215 194 184 182 203 184 191 192 161 180 168 165 67 252 323 334 43 176 187 116 195 148 191 228 122 210 206 180 120 91 357 360 98 34 257 156 298 271 300 286 237 253 261 272 311 323 331 297 283 320 279 256 248 229
67 103 179 161 193 154 146 124 97 73 65 150 168 206 212 230 176 123 162 167 188 131 136 137 220 141 174 191 179 185 220 82 187 136 214 169 288 202 200 236 177 185 201 143 249 186 148 233 329 83 205 290 175 180 115 18 152 101 192 236 213 97 122 140 214 338 99 202 266 119 238 285 49 285 342 336 236 270 297 285 264 267 276 291 251 255 237 232
74 109 291 218 161 132 121 122 109 59 74 141 202 223 67 213 286 84 142 111 110 141 142 147 209 117 185 145 202 176 208 155 202 174 195 180 245 187 170 184 199 191 199 200 160 243 132 244 284 329 195 280 339 140 314 346 44 148 191 208 120 255 252 298 94 247 189 269 269 279 244 264 201 246 94 352 137 223 253 250 256 260 264 253 258 274 263 241
118 93 255 209 130 137 137 130 125 126 109 176 217 220 195 230 326 60 318 157 156 137 161 219 127 227 149 190 162 163 168 174 177 190 148 228 205 206 184 169 210 198 189 160 187 215 121 179 284 339 117 304 15 112 204 188 330 30 63 136 163 104 168 147 200 174 123 242 71 280 121 263 177 231 161 227 234 246 245 247 239 238 242 248 247 250 260 259
131 102 252 95 136 124 124 110 96 134 145 198 207 212 33 19 338 320 5 280 220 158 205 184 194 143 171 198 157 165 222 169 164 198 176 193 198 269 184 190 184 195 185 179 190 144 222 165 228 257 306 93 190 198 210 155 162 202 142 222 223 342 233 120 181 147 169 182 184 263 296 257 250 194 164 203 214 218 215 229 230 235 243 241 243 243 248 251
177 94 231 131 137 128 114 103 121 151 171 317 21 355 14 321 328 314 334 358 26 33 160 167 169 174 165 139 210 188 164 159 175 179 184 207 185 219 214 186 144 160 132 160 186 189 156 175 180 152 40 235 236 230 187 178 182 176 179 196 188 138 155 154 259 13 126 159 236 148 260 277 239 202 175 215 224 220 224 213 226 234 242 243 242 245 239 246
164 163 190 128 141 137 130 154 83 74 123 205 207 145 180 17 355 326 345 325 55 357 341 115 231 152 156 180 164 174 136 170 180 178 227 188 217 212 233 174 166 148 150 175 195 209 167 136 111 184 204 208 223 270 251 216 290 294 164 229 183 186 132 140 208 255 6 247 152 174 298 270 198 181 185 196 220 215 207 198 227 252 249 241 239 241 255 237
130 200 359 163 167 140 124 107 130 133 225 260 5 13 347 357 347 319 4 334 4 9 5 134 201 166 239 149 177 153 158 190 173 201 195 213 230 202 221 174 156 161 158 189 173 295 96 97 98 292 332 331 335 325 26 34 179 267 256 105 116 203 177 174 176 187 171 240 226 246 214 263 36 336 101 111 354 28 164 174 204 232 252 256 250 259 244 240
352 196 39 247 201 171 146 166 179 192 199 40 127 346 142 259 11 322 79 360 81 356 334 282 324 74 206 155 147 173 180 173 219 191 229 213 242 222 177 178 157 170 159 204 173 202 160 258 142 136 25 340 350 343 358 338 42 156 223 207 175 157 163 191 113 121 222 210 200 146 235 258 266 315 33 31 321 235 242 254 190 216 248 255 277 264 241 224
222 299 49 58 353 206 184 179 154 164 176 162 151 186 166 193 232 233 290 321 4 24 334 313 298 318 318 114 152 161 190 189 153 223 194 188 224 274 195 174 181 171 199 188 175 166 159 174 138 160 194 204 226 196 206 216 211 226 212 208 193 176 181 127 228 199 224 237 189 203 241 255 233 340 356 1 13 334 306 297 289 231 242 277 265 263 264 254
180 177 172 58 162 262 257 78 152 152 168 150 173 207 171 208 271 228 199 259 176 309 234 286 312 233 331 125 138 175 202 229 173 190 188 218 239 358 267 190 183 181 205 152 155 143 166 189 175 187 194 211 219 200 214 120 79 171 233 192 208 205 185 188 133 195 218 232 214 231 236 259 269 259 284 289 358 256 269 295 290 292 296 284 271 265 248 215
307 209 155 189 83 267 260 171 162 155 181 171 180 158 193 206 169 327 166 225 230 198 269 260 282 347 260 173 204 194 192 206 188 120 197 193 240 228 7 143 192 215 172 136 168 100 86 181 210 201 209 218 214 191 181 162 186 204 206 209 205 191 186 186 190 222 217 218 249 232 229 251 263 262 254 265 261 273 259 252 274 290 265 258 266 290 292 274
194 239 165 226 161 199 200 235 182 178 142 162 200 153 194 181 193 194 163 232 12 163 178 318 267 224 275 247 295 202 172 183 171 212 131 165 111 316 119 352 143 280 149 155 175 165 150 191 222 191 230 234 227 193 175 186 190 195 203 201 197 203 193 197 216 225 207 200 231 245 191 220 252 260 250 247 234 230 243 242 237 246 291 304 290 281 271 259
267 357 272 256 209 235 201 188 173 171 163 171 190 164 184 183 200 199 162 146 155 244 178 229 234 244 249 258 331 233 174 166 232 255 161 134 170 124 114 23 268 17 126 130 168 177 138 229 208 187 219 234 238 207 190 188 207 206 209 207 204 198 202 205 216 222 217 219 232 248 247 232 246 261 231 236 225 218 245 263 298 267 250 257 276 274 264 265
193 154 273 328 217 311 186 163 166 184 198 178 190 195 185 189 205 191 183 152 178 227 172 219 223 210 225 240 245 241 230 232 231 189 229 129 218 87 195 180 172 350 30 169 163 262 161 232 181 165 204 240 244 214 172 206 174 207 240 233 220 211 208 208 214 224 228 244 245 255 265 268 253 251 275 256 261 195 292 292 247 243 256 270 272 261 256 253
330 72 46 21 270 215 174 148 179 183 191 190 202 200 192 196 209 183 201 181 192 176 175 211 219 207 210 222 227 245 262 249 207 176 144 126 171 222 126 297 79 162 142 115 114 213 171 251 39 113 205 245 237 180 168 151 181 213 242 240 227 218 222 223 222 216 206 220 230 244 257 254 260 169 238 257 260 272 256 245 244 252 255 255 253 249 240 251
246 269 89 336 312 198 177 195 167 160 211 196 199 198 193 204 197 162 206 207 206 200 191 209 212 179 204 207 226 229 230 228 95 115 161 160 149 101 116 152 126 151 177 113 340 127 158 141 153 146 207 239 244 130 137 146 134 259 243 233 224 206 211 215 225 220 214 205 212 221 238 248 259 210 199 262 254 245 257 242 244 253 247 243 254 258 247 244